Back to catalog

IRIDIUM 33 DEB

AlivePO
NORAD 34521·DEBRIS·🇺🇸 United States

Launched Sep 14, 1997 from Baikonur Cosmodrome

Loading…

Next Passes (next 24 hours)

TLE

FreshSource: Space-Track

Epoch: Sep 14, 2026, 07:05 UTC

1 34521U 97051HN  26257.29579075  .00002865  00000-0  51420-3 0  9999
2 34521  86.3725 268.8672 0005300  67.4796 292.6978 14.66415051925073

Track IRIDIUM 33 DEB in real time with AllMySat

Download on the App Store